Location: Nelson
(41.2830°S, 173.2830°E)
Time: 15:24:36
(UTC+12:00)

Cosmos 1606 - Pass Details

Date: 14 May 2021
Orbit: 503 x 525 km, 82.5° (Epoch: 19 June)

Event Time Altitude Azimuth Distance (km) Brightness Sun altitude
Rises 18:28:51 0° 181° (S) 2,655 6.2 -13.2°
Reaches altitude 10° 18:31:05 10° 174° (S) 1,757 5.2 -13.6°
Maximum altitude 18:34:45 42° 102° (ESE) 749 3.0 -14.3°
Drops below altitude 10° 18:38:22 10° 29° (NNE) 1,725 5.2 -15.0°
Sets 18:40:33 0° 22° (NNE) 2,600 6.2 -15.4°
